Location: Aranbee
(34.0885°N, 118.2342°W)
Time: 12:07:30
(UTC+00:00)

S-56A Canister/Altair - Pass Details

Date: 06 August 2021
Orbit: 632 x 2500 km, 38.9° (Epoch: 18 September)

Event Time Altitude Azimuth Distance (km) Brightness Sun altitude
Rises 05:04:08 0° 289° (WNW) 6,174 13.2 -24.4°
Reaches altitude 10° 05:09:20 10° 278° (W) 5,083 12.4 -25.2°
Maximum altitude 05:19:43 25° 232° (SW) 3,627 10.9 -26.7°
Enters shadow 05:26:05 16° 193° (SSW) 3,830 10.7 -27.6°
